DW0639 Weather Reports


Display with metric or nautical units.
time (UTC)temp
F
wind
direction
speed
MPH
gust
MPH
rain 1hr
in
rain 24hr
in
rain mn
in
humidity
%
barometer
mb
20260504050358 52 144 1.0 5.0 0.00 0.00 0.00 65 1017.3
20260504045357 53 168 1.0 5.0 0.00 0.00 0.00 66 1017.3
20260504044325 53 157 2.0 5.0 0.00 0.00 0.00 66 1017.3
20260504043324 53 177 2.0 5.0 0.00 0.00 0.00 65 1017.3
20260504042323 53 175 2.0 4.0 0.00 0.00 0.00 65 1017.3
20260504041220 53 180 2.0 4.0 0.00 0.00 0.00 65 1017.6
20260504040219 53 156 1.0 3.0 0.00 0.00 0.00 65 1017.6
20260504035219 53 161 1.0 3.0 0.00 0.00 0.00 65 1017.6
20260504034218 53 189 1.0 3.0 0.00 0.00 0.00 65 1017.9
20260504033217 53 158 1.0 3.0 0.00 0.00 0.00 65 1017.9
20260504032216 53 184 2.0 2.0 0.00 0.00 0.00 65 1017.9
20260504031216 53 167 0.0 2.0 0.00 0.00 0.00 66 1017.9
20260504030214 54 167 0.0 2.0 0.00 0.00 0.00 66 1017.9
20260504025214 55 152 1.0 2.0 0.00 0.00 0.00 66 1017.9
20260504024142 55 155 1.0 2.0 0.00 0.00 0.00 66 1017.6
20260504023141 55 196 1.0 3.0 0.00 0.00 0.00 66 1017.6
20260504022140 55 185 1.0 3.0 0.00 0.00 0.00 65 1017.6
20260504021139 56 174 1.0 3.0 0.00 0.00 0.00 66 1017.6
20260504020138 56 155 1.0 3.0 0.00 0.00 0.00 65 1017.6
20260504015137 56 165 1.0 4.0 0.00 0.00 0.00 65 1017.3
20260504014137 57 160 1.0 4.0 0.00 0.00 0.00 64 1017.3
20260504013136 57 162 1.0 3.0 0.00 0.00 0.00 63 1017.3
20260504012104 56 203 1.0 2.0 0.00 0.00 0.00 62 1017.3
20260504011033 56 159 0.0 0.0 0.00 0.00 0.00 64 1016.9
20260504005859 57 160 0.0 0.0 0.00 0.00 0.00 65 1017.3
20260504004858 58 160 0.0 0.0 0.00 0.00 0.00 63 1017.3
20260504003858 59 159 0.0 0.0 0.00 0.00 0.00 60 1017.3
20260504002857 61 159 0.0 0.0 0.00 0.00 0.00 56 1017.3
20260504001825 63 160 0.0 0.0 0.00 0.00 0.00 52 1017.3
20260504000824 65 159 0.0 2.0 0.00 0.00 0.00 47 1017.3
20260503235823 66 160 1.0 3.0 0.00 0.00 0.00 45 1017.3
20260503150745 56 93 3.0 7.0 0.00 0.00 0.00 50 1023.0
20260503130705 48 89 1.0 4.0 0.00 0.00 0.00 1 1023.0
20260503081547 41 333 0.0 0.0 0.00 0.00 0.00 1 1021.0
20260503080546 41 333 0.0 0.0 0.00 0.00 0.00 1 1021.0
20260503072440 41 333 0.0 0.0 0.00 0.00 0.00 1 1021.0
20260503071440 41 333 0.0 0.0 0.00 0.00 0.00 1 1020.7
20260503070439 42 333 0.0 0.0 0.00 0.00 0.00 1 1020.7